TimeCST,TemperatureF,Dew PointF,Humidity,Sea Level PressureIn,VisibilityMPH,Wind Direction,Wind SpeedMPH,Gust SpeedMPH,PrecipitationIn,Events,Conditions,WindDirDegrees,DateUTC
12:15 AM,38.3,37.8,98,29.70,0.8,South,5.8,-,N/A,,Overcast,180,2013-01-11 06:15:00
12:35 AM,38.1,37.8,99,29.69,0.8,South,4.6,-,N/A,,Overcast,170,2013-01-11 06:35:00
12:55 AM,37.9,37.6,99,29.67,0.5,SSE,3.5,-,N/A,Fog,Fog,150,2013-01-11 06:55:00
1:15 AM,37.6,37.4,99,29.66,0.2,SSE,9.2,-,N/A,Fog,Fog,150,2013-01-11 07:15:00
1:35 AM,38.3,37.8,98,29.65,0.2,SSE,8.1,-,N/A,Fog,Fog,150,2013-01-11 07:35:00
1:55 AM,37.9,37.6,99,29.65,0.2,SSE,9.2,-,N/A,Fog,Fog,150,2013-01-11 07:55:00
2:15 AM,37.6,37.4,99,29.64,0.2,SE,8.1,-,N/A,Fog,Fog,140,2013-01-11 08:15:00
2:35 AM,37.4,36.9,98,29.64,0.2,SSE,8.1,-,N/A,Fog,Fog,150,2013-01-11 08:35:00
2:55 AM,37.0,36.7,99,29.63,0.2,SSE,8.1,-,N/A,Snow,Light Snow,150,2013-01-11 08:55:00
3:15 AM,36.7,36.5,99,29.63,0.2,SSE,8.1,-,N/A,Snow,Light Snow,160,2013-01-11 09:15:00
3:35 AM,36.9,36.5,99,29.62,0.2,SSE,9.2,-,N/A,Snow,Light Snow,160,2013-01-11 09:35:00
3:55 AM,36.9,36.5,99,29.62,0.5,SSE,9.2,-,N/A,Fog,Fog,160,2013-01-11 09:55:00
4:15 AM,37.8,37.4,99,29.62,0.2,SSE,10.4,-,N/A,Snow,Light Snow,160,2013-01-11 10:15:00
4:35 AM,38.3,37.8,98,29.61,0.2,SSE,10.4,-,N/A,,Unknown,160,2013-01-11 10:35:00
4:55 AM,38.3,37.8,98,29.60,0.2,SSE,8.1,-,N/A,,Unknown,150,2013-01-11 10:55:00
5:15 AM,38.5,38.3,99,29.59,0.2,SSE,10.4,-,N/A,,Unknown,160,2013-01-11 11:15:00
5:35 AM,38.7,38.3,99,29.59,0.5,SSE,8.1,-,N/A,Fog,Fog,160,2013-01-11 11:35:00
5:55 AM,38.8,38.5,99,29.58,0.5,SSE,9.2,-,N/A,Fog,Fog,150,2013-01-11 11:55:00
6:15 AM,38.7,38.3,99,29.57,0.5,SE,8.1,-,N/A,Fog,Fog,130,2013-01-11 12:15:00
6:35 AM,38.5,38.1,99,29.57,0.5,SSE,8.1,-,N/A,Fog,Fog,150,2013-01-11 12:35:00
6:55 AM,38.8,38.5,99,29.56,0.2,SSE,9.2,-,N/A,Fog,Fog,150,2013-01-11 12:55:00
7:15 AM,40.3,40.1,99,29.56,0.5,SSE,12.7,-,N/A,Fog,Fog,150,2013-01-11 13:15:00
7:35 AM,41.5,41.2,99,29.55,0.2,SSE,11.5,-,N/A,Fog,Fog,150,2013-01-11 13:35:00
7:55 AM,42.1,41.9,99,29.54,0.2,SSE,13.8,-,N/A,Fog,Fog,150,2013-01-11 13:55:00
8:15 AM,42.8,42.3,98,29.55,0.5,SSE,10.4,-,N/A,Fog,Fog,150,2013-01-11 14:15:00
8:35 AM,43.2,42.8,99,29.54,0.8,SSE,11.5,-,N/A,,Overcast,150,2013-01-11 14:35:00
8:55 AM,43.9,43.7,99,29.52,1.8,SE,10.4,16.1,N/A,,Overcast,140,2013-01-11 14:55:00
9:35 AM,44.8,44.4,99,29.53,3.0,SSE,11.5,17.3,N/A,,Overcast,160,2013-01-11 15:35:00
9:55 AM,45.5,45.1,99,29.52,5.0,SSE,11.5,16.1,N/A,,Overcast,150,2013-01-11 15:55:00
10:15 AM,46.4,46.0,99,29.51,7.0,SSE,11.5,17.3,N/A,,Overcast,160,2013-01-11 16:15:00
10:35 AM,46.8,46.4,99,29.50,10.0,SSE,11.5,-,N/A,,Overcast,160,2013-01-11 16:35:00
10:55 AM,47.3,46.9,99,29.49,10.0,SSE,11.5,17.3,N/A,,Overcast,160,2013-01-11 16:55:00
11:15 AM,47.8,47.5,99,29.48,10.0,SSE,12.7,18.4,N/A,,Overcast,160,2013-01-11 17:15:00
11:35 AM,49.1,48.4,97,29.47,10.0,South,18.4,24.2,N/A,,Mostly Cloudy,170,2013-01-11 17:35:00
11:55 AM,49.1,47.5,94,29.45,10.0,South,13.8,21.9,N/A,,Mostly Cloudy,170,2013-01-11 17:55:00
12:15 PM,49.5,46.6,90,29.45,10.0,South,15.0,20.7,N/A,,Scattered Clouds,180,2013-01-11 18:15:00
12:35 PM,50.9,47.1,87,29.44,10.0,South,24.2,27.6,N/A,,Clear,180,2013-01-11 18:35:00
12:55 PM,52.3,47.7,84,29.42,10.0,South,24.2,28.8,N/A,,Clear,170,2013-01-11 18:55:00
1:15 PM,52.7,47.3,82,29.41,10.0,South,21.9,29.9,N/A,,Clear,170,2013-01-11 19:15:00
1:35 PM,53.8,46.8,77,29.40,10.0,South,23.0,32.2,N/A,,Clear,170,2013-01-11 19:35:00
2:15 PM,54.3,47.7,78,29.41,10.0,South,16.1,23.0,N/A,,Clear,170,2013-01-11 20:15:00
2:35 PM,53.2,47.1,80,29.41,10.0,SSE,16.1,-,N/A,,Clear,160,2013-01-11 20:35:00
2:55 PM,54.0,45.3,73,29.41,10.0,South,19.6,25.3,N/A,,Clear,170,2013-01-11 20:55:00
3:15 PM,54.3,45.3,72,29.40,10.0,SSE,16.1,-,N/A,,Clear,160,2013-01-11 21:15:00
3:35 PM,53.6,44.8,72,29.41,10.0,South,20.7,26.5,N/A,,Clear,180,2013-01-11 21:35:00
3:55 PM,52.7,44.6,74,29.41,10.0,South,18.4,25.3,N/A,,Clear,180,2013-01-11 21:55:00
4:15 PM,52.3,44.4,74,29.40,10.0,South,17.3,25.3,N/A,,Clear,170,2013-01-11 22:15:00
4:35 PM,52.2,43.9,73,29.40,10.0,South,13.8,-,N/A,,Clear,170,2013-01-11 22:35:00
4:55 PM,52.2,43.7,73,29.41,10.0,South,15.0,19.6,N/A,,Clear,170,2013-01-11 22:55:00
5:15 PM,51.6,43.7,74,29.42,10.0,South,16.1,20.7,N/A,,Clear,170,2013-01-11 23:15:00
5:35 PM,52.0,43.9,74,29.42,10.0,SSE,16.1,21.9,N/A,,Clear,160,2013-01-11 23:35:00
5:55 PM,51.8,43.9,74,29.42,10.0,South,15.0,-,N/A,,Clear,170,2013-01-11 23:55:00
6:15 PM,51.8,44.1,75,29.42,10.0,SSE,15.0,23.0,N/A,,Clear,160,2013-01-12 00:15:00
6:35 PM,51.3,44.1,76,29.42,10.0,South,16.1,-,N/A,,Clear,170,2013-01-12 00:35:00
6:55 PM,50.9,44.1,77,29.42,10.0,South,15.0,-,N/A,,Clear,170,2013-01-12 00:55:00
7:15 PM,50.9,44.2,78,29.42,10.0,South,17.3,23.0,N/A,,Clear,170,2013-01-12 01:15:00
7:35 PM,50.9,44.2,78,29.42,10.0,South,19.6,24.2,N/A,,Clear,170,2013-01-12 01:35:00
7:55 PM,50.4,43.9,78,29.44,10.0,South,15.0,-,N/A,,Clear,180,2013-01-12 01:55:00
8:15 PM,50.9,43.3,75,29.45,10.0,South,17.3,-,N/A,,Mostly Cloudy,190,2013-01-12 02:15:00
8:35 PM,51.1,42.6,73,29.46,10.0,WSW,8.1,21.9,N/A,,Overcast,250,2013-01-12 02:35:00
8:55 PM,45.9,40.6,82,29.48,10.0,WNW,11.5,-,N/A,,Overcast,290,2013-01-12 02:55:00
9:15 PM,42.1,38.8,88,29.51,10.0,WNW,15.0,-,N/A,,Overcast,290,2013-01-12 03:15:00
9:35 PM,37.9,36.0,93,29.55,4.0,WNW,20.7,-,N/A,,Overcast,300,2013-01-12 03:35:00
9:55 PM,35.8,33.6,92,29.58,7.0,WNW,19.6,24.2,N/A,,Overcast,290,2013-01-12 03:55:00
10:15 PM,34.7,32.0,90,29.62,10.0,WNW,17.3,28.8,N/A,,Overcast,290,2013-01-12 04:15:00
10:35 PM,33.8,30.9,89,29.65,10.0,WNW,23.0,36.8,N/A,,Overcast,290,2013-01-12 04:35:00
10:55 PM,32.4,29.5,89,29.67,7.0,West,21.9,28.8,N/A,,Overcast,280,2013-01-12 04:55:00
11:35 PM,31.3,26.1,81,29.71,10.0,WNW,19.6,27.6,N/A,,Overcast,290,2013-01-12 05:35:00
11:55 PM,30.4,23.9,77,29.74,10.0,WNW,21.9,33.4,N/A,,Overcast,290,2013-01-12 05:55:00